sat.trackr.live / text

‹ back to catalog

2022-023B

NORAD 51947 · 2022-023B

PAYLOAD ACTIVE UNKNOWN

§ Identity

Operator
Country
PRC
Launch date
2022-03-05
Launch site
XICLF
Launch vehicle
Mass (kg)
RCS (m²)

External: N2YO · Heavens-Above · Gunter

§ Orbital elements

Epoch: 2026-09-20T22:49:40.874592Z

Period
94.86 min
Inclination
63.4781°
Eccentricity
0.0114593
Mean motion
15.18041204 rev/d
Perigee alt
432.8 km
Apogee alt
590.7 km
Semi-major
6,889.9 km
B*
4.4094e-4
RAAN
304.6948°
Arg perigee
350.7796°
Mean anomaly
9.1210°
Rev number
25,225

§ Raw data

2022-023B1 51947U 22023B   26263.95116753  .00010486  00000+0  44094-3 0  99932 51947  63.4781 304.6948 0114593 350.7796   9.1210 15.18041204252256

JSON: /api/v1/satellites/51947 · /tle

For live sub-satellite position, see the globe view (requires WebGL).

§ Visibility from observer

Set your observer location to see the next 7 days of passes ≥ 10°. The values pass through the URL so the page stays shareable.

No JS? Fill the form by hand. The geolocation button needs JavaScript.